Location: New Frontier Mobile Home Park
(32.8448°N, 116.9675°W)
Time: 23:13:34
(UTC+00:00)

Cosmos 676 Rocket - Pass Details

Date: 14 July 2020
Orbit: 753 x 785 km, 74.0° (Epoch: 05 August)

Event Time Altitude Azimuth Distance (km) Brightness Sun altitude
Exits shadow 09:38:07 60° 37° (NE) 879 4.4 -30.2°
Drops below altitude 10° 09:42:28 10° 20° (NNE) 2,323 7.4 -29.7°
Sets 09:44:52 0° 19° (NNE) 3,259 8.4 -29.5°
